Вернуться в каталог

BADR 6

АктивенСвязьGEO
NORAD 33154·PAYLOAD·🇦🇪 UAE🇸🇦 Saudi Arabia

Запущен Jul 7, 2008 с Guiana Space Centre

Loading…

TLE

СвежийSource: Space-Track

Эпоха: Sep 14, 2026, 10:12 UTC

1 33154U 08034B   26257.42536450 -.00000216  00000-0  00000-0 0  9992
2 33154   3.0977  78.4001 0006835  19.0569  12.5268  0.98746895 66558

Отслеживайте BADR 6 в реальном времени с AllMySat

Download on the App Store